Hourly Data Report for June 18, 2021

WINNIPEG THE FORKS
MANITOBA
Current Station Operator: ECCC - MSC

49°53'18.008" N
97°07'46.007" W
230.00 m
5023262
71579
XWN

Download Data

Hourly Data (June 2021)
Hourly Data Report for June 18, 2021
TIME
LST
Temp Definition
°C
Dew Point Definition
°C
Rel Hum Definition
%
Precip. Amount Definition
mm

Wind Dir Definition
10's deg

Wind Spd Definition
km/h
Visibility Definition
km
Stn Press Definition
kPa
Hmdx Definition


Wind Chill Definition


Weather Definition


00:00 19.5 4.9 38 0.0 28 4   97.88     LegendNANA
01:00 19.2 6.2 43 0.0 27 5   97.89     LegendNANA
02:00 18.2 7.0 48 0.0 27 4   97.89     LegendNANA
03:00 17.1 6.3 49 0.0 29 7   97.94     LegendNANA
04:00 16.3 6.8 53 0.0 28 5   97.95     LegendNANA
05:00 16.1 7.3 56 0.0 26 5   97.98     LegendNANA
06:00 16.2 7.5 56 0.0 27 6   98.01     LegendNANA
07:00 17.3 8.7 57 0.0 28 7   98.06     LegendNANA
08:00 17.9 10.3 61 0.0 33 10   98.10     LegendNANA
09:00 18.2 9.9 58 0.0 32 10   98.13     LegendNANA
10:00 18.3 9.6 57 0.0 32 12   98.16     LegendNANA
11:00 18.9 9.3 54 0.0 31 10   98.19     LegendNANA
12:00 19.1 9.3 53 0.0 32 13   98.22     LegendNANA
13:00 19.9 9.6 51 0.0 33 12   98.23     LegendNANA
14:00 19.7 8.8 49 0.0 32 11   98.25     LegendNANA
15:00 19.0 8.5 51 0.0 34 11   98.27     LegendNANA
16:00 18.1 8.6 54 0.0 36 15   98.31     LegendNANA
17:00 17.7 9.3 58 0.0 36 12   98.33     LegendNANA
18:00 17.1 7.6 54 0.0 35 13   98.41     LegendNANA
19:00 16.5 8.0 57 0.0 1 9   98.44     LegendNANA
20:00 15.4 8.1 62 0.0 2 4   98.44     LegendNANA
21:00 14.7 8.6 66 0.0 5 3   98.45     LegendNANA
22:00 13.9 8.5 70 0.0 0 1   98.49     LegendNANA
23:00 14.4 9.0 70 0.0 21 2   98.53     LegendNANA

Notes on Data Quality.

Legend

  • E = Estimated
  • M = Missing
  • NA = Not Available*
  • [empty] = Indicates an unobserved value
Date modified: